Location: Ailingen
(47.6833°N, 9.5000°E)
Time: 06:39:36
(UTC+00:00)

Cosmos 2344 - Pass Details

Date: 18 November 2025
Orbit: 1197 x 3045 km, 63.3° (Epoch: 13 December)

Event Time Altitude Azimuth Distance (km) Brightness Sun altitude
Rises 18:23:01 0° 318° (NW) 4,216 6.9 -26.9°
Reaches altitude 10° 18:25:31 10° 319° (NW) 3,335 6.3 -27.3°
Maximum altitude 18:33:31 89° 234° (SW) 1,564 3.9 -28.6°
Enters shadow 18:38:34 35° 143° (SE) 2,582 4.8 -29.5°
